Weather History for KGPH - March, 2013

Change the Weather History Date:

Sunday, March 10, 2013

  Actual Average (KMCI) Record (KMCI)
Temperature  
Mean Temperature 40 °F 42 °F  
Max Temperature 51 °F 53 °F 84 °F (1967)
Min Temperature 30 °F 31 °F 1 °F (1948)
Degree Days  
Heating Degree Days 24 23  
Month to date heating degree days 247  
Since 1 July heating degree days 4292  
Cooling Degree Days 0 0  
Month to date cooling degree days 0  
Year to date cooling degree days 0  
Moisture  
Dew Point 40 °F    
Average Humidity 97    
Maximum Humidity 100    
Minimum Humidity 87    
Precipitation  
Precipitation 0.00 in 0.07 in 1.34 in (1901)
Month to date precipitation 0.66  
Year to date precipitation 3.19  
Snow  
Snow 0.00 in 0.10 in 6.00 in (1901)
Month to date snowfall 0.9  
Since 1 July snowfall 17.1  
Snow Depth -    
Sea Level Pressure  
Sea Level Pressure 29.70 in    
Wind  
Wind Speed 7 mph (NW)    
Max Wind Speed 23 mph    
Max Gust Speed 29 mph    
Visibility 6 miles    
Events Fog , Rain    
T = Trace of Precipitation, MM = Missing Value Source: NWS Daily Summary

Daily Weather History Graph

Daily Weather History Graph

Search for Another Location

Airport or City:

Trip Planner

Search our weather history database for the weather conditions in past years. The results will help you decide how hot, cold, wet, or windy it might be!

Date:

Astronomy

Mar. 10, 2013 Rise Set
Actual Time 7:35 AM CDT 7:19 PM CDT
Civil Twilight 7:09 AM CDT 7:46 PM CDT
Nautical Twilight 6:38 AM CDT 8:17 PM CDT
Astronomical Twilight 6:06 AM CDT 8:48 PM CDT
Moon 6:36 AM CDT (3/10) 6:28 PM CDT (3/10)
Length of Visible Light 12h 36m
Length of Day
11h 43m
Waning Crescent, 2% of the Moon is Illuminated
Mar 10
Waning Crescent
Mar 11
New
Mar 19
First Quarter
Mar 27
Full
Apr 2
Last Quarter

Hourly Weather History & Observations

Time (CDT) Temp. Windchill Dew Point Humidity Pressure Visibility Wind Dir Wind Speed Gust Speed Precip Events Conditions
12:15 AM 50.0 °F - 50.0 °F 100% 29.62 in 4.0 mi ESE 5.8 mph - N/A   Overcast
12:35 AM 51.8 °F - 51.8 °F 100% 29.61 in 4.0 mi ESE 3.5 mph - N/A   Overcast
12:55 AM 50.0 °F - 50.0 °F 100% 29.62 in 3.0 mi Calm Calm - N/A   Overcast
1:15 AM 50.0 °F - 50.0 °F 100% 29.61 in 1.0 mi East 4.6 mph - N/A   Overcast
1:35 AM 50.0 °F - 50.0 °F 100% 29.62 in 0.5 mi Calm Calm - N/A Fog Fog
1:55 AM 50.0 °F - 50.0 °F 100% 29.61 in 0.5 mi East 3.5 mph - N/A Fog Fog
3:15 AM 50.0 °F - 50.0 °F 100% 29.62 in 0.2 mi Calm Calm - N/A Fog Fog
3:35 AM 48.2 °F - 48.2 °F 100% 29.61 in 0.2 mi Calm Calm - N/A Fog Fog
3:55 AM 50.0 °F - 50.0 °F 100% 29.60 in 0.8 mi SE 3.5 mph - N/A   Overcast
4:35 AM 50.0 °F - 50.0 °F 100% 29.59 in 3.0 mi Calm Calm - N/A   Mostly Cloudy
4:55 AM 50.0 °F - 50.0 °F 100% 29.57 in 4.0 mi East 5.8 mph - N/A   Overcast
5:15 AM 50.0 °F - 50.0 °F 100% 29.58 in 7.0 mi SSE 3.5 mph - N/A   Overcast
5:35 AM 50.0 °F - 50.0 °F 100% 29.59 in 2.5 mi SE 3.5 mph - N/A   Overcast
5:55 AM 51.8 °F - 51.8 °F 100% 29.63 in 4.0 mi South 3.5 mph - N/A   Mostly Cloudy
6:15 AM 50.0 °F - 50.0 °F 100% 29.62 in 0.8 mi Calm Calm - N/A   Overcast
6:35 AM 50.0 °F - 50.0 °F 100% 29.62 in 0.2 mi ESE 3.5 mph - N/A Fog Fog
6:55 AM 50.0 °F - 50.0 °F 100% 29.61 in 0.2 mi East 3.5 mph - N/A Fog Fog
7:15 AM 48.2 °F - 48.2 °F 100% 29.62 in 0.2 mi SE 3.5 mph - N/A Fog Fog
7:35 AM 48.2 °F - 48.2 °F 100% 29.63 in 0.2 mi Calm Calm - N/A Fog Fog
7:55 AM 48.2 °F - 48.2 °F 100% 29.66 in 1.0 mi SSE 4.6 mph - N/A   Overcast
8:15 AM 48.2 °F - 48.2 °F 100% 29.64 in 1.5 mi ESE 5.8 mph - N/A   Overcast
8:35 AM 48.2 °F - 48.2 °F 100% 29.64 in 2.0 mi Calm Calm - N/A   Mist
9:15 AM 46.4 °F 44.3 °F 46.4 °F 100% 29.64 in 2.0 mi NNE 4.6 mph 18.4 mph N/A Rain Heavy Rain
9:35 AM 44.6 °F 41.4 °F 44.6 °F 100% 29.67 in 3.0 mi West 5.8 mph - N/A Rain Rain
9:55 AM 44.6 °F 42.2 °F 44.6 °F 100% 29.67 in 4.0 mi NW 4.6 mph - N/A Rain Light Rain
10:15 AM 44.6 °F 39.7 °F 44.6 °F 100% 29.67 in 3.0 mi NW 9.2 mph - N/A Rain Heavy Rain
10:35 AM 42.8 °F 35.8 °F 42.8 °F 100% 29.65 in 3.0 mi NW 13.8 mph - N/A Rain Rain
10:55 AM 42.8 °F 38.0 °F 42.8 °F 100% 29.67 in 4.0 mi WNW 8.1 mph - N/A Rain Rain
11:15 AM 41.0 °F 35.2 °F 41.0 °F 100% 29.67 in 3.0 mi NW 9.2 mph - N/A Rain Rain
11:35 AM 41.0 °F 33.9 °F 41.0 °F 100% 29.65 in 7.0 mi NNW 12.7 mph - N/A Rain Rain
11:55 AM 39.2 °F 33.0 °F 39.2 °F 100% 29.67 in 7.0 mi NW 9.2 mph - N/A   Overcast
12:15 PM 39.2 °F 32.5 °F 39.2 °F 100% 29.67 in 7.0 mi NW 10.4 mph - N/A Rain Rain
12:35 PM 39.2 °F 33.0 °F 39.2 °F 100% 29.67 in 5.0 mi NNW 9.2 mph - N/A Rain Rain
12:55 PM 37.4 °F 30.3 °F 37.4 °F 100% 29.66 in 5.0 mi NW 10.4 mph - N/A Rain Light Rain
1:15 PM 37.4 °F 30.3 °F 37.4 °F 100% 29.66 in 10.0 mi NW 10.4 mph - N/A Rain Light Rain
1:35 PM 37.4 °F 29.8 °F 37.4 °F 100% 29.67 in 10.0 mi NW 11.5 mph 16.1 mph N/A Rain Light Rain
1:55 PM 37.4 °F 28.9 °F 37.4 °F 100% 29.67 in 4.0 mi NW 13.8 mph 19.6 mph N/A   Overcast
2:15 PM 37.4 °F 28.2 °F 37.4 °F 100% 29.67 in 2.0 mi NW 16.1 mph 23.0 mph N/A   Overcast
2:35 PM 37.4 °F 29.3 °F 37.4 °F 100% 29.66 in 2.5 mi NNW 12.7 mph 19.6 mph N/A   Overcast
2:55 PM 37.4 °F 29.8 °F 37.4 °F 100% 29.66 in 7.0 mi NW 11.5 mph 20.7 mph N/A   Overcast
3:15 PM 37.4 °F 29.8 °F 37.4 °F 100% 29.67 in 10.0 mi NNW 11.5 mph 20.7 mph N/A   Overcast
3:35 PM 37.4 °F 28.9 °F 37.4 °F 100% 29.68 in 10.0 mi NW 13.8 mph 18.4 mph N/A   Overcast
4:15 PM 37.4 °F 28.2 °F 37.4 °F 100% 29.70 in 7.0 mi NW 16.1 mph 23.0 mph N/A   Overcast
4:35 PM 37.4 °F 28.2 °F 35.6 °F 93% 29.71 in 7.0 mi NW 16.1 mph 19.6 mph N/A   Overcast
4:55 PM 37.4 °F 27.8 °F 35.6 °F 93% 29.72 in 4.0 mi NW 17.3 mph 23.0 mph N/A   Overcast
5:15 PM 35.6 °F 25.9 °F 33.8 °F 93% 29.73 in 3.0 mi WNW 16.1 mph 24.2 mph N/A   Overcast
5:35 PM 33.8 °F 24.3 °F 32.0 °F 93% 29.74 in 3.0 mi WNW 13.8 mph 24.2 mph N/A   Overcast
5:55 PM 33.8 °F 23.5 °F 32.0 °F 93% 29.75 in 10.0 mi NW 16.1 mph 21.9 mph N/A   Overcast
6:15 PM 33.8 °F 25.3 °F 32.0 °F 93% 29.77 in 10.0 mi NW 11.5 mph 25.3 mph N/A   Overcast
6:35 PM 32.0 °F 19.2 °F 32.0 °F 100% 29.77 in 7.0 mi NW 23.0 mph 27.6 mph N/A   Overcast
6:55 PM 32.0 °F 21.2 °F 32.0 °F 100% 29.77 in 7.0 mi NW 16.1 mph 21.9 mph N/A   Overcast
7:15 PM 32.0 °F 20.5 °F 30.2 °F 93% 29.79 in 10.0 mi NW 18.4 mph 24.2 mph N/A   Overcast
7:35 PM 32.0 °F 21.2 °F 30.2 °F 93% 29.80 in 10.0 mi NW 16.1 mph 25.3 mph N/A   Overcast
7:55 PM 32.0 °F 21.2 °F 30.2 °F 93% 29.80 in 10.0 mi NW 16.1 mph 25.3 mph N/A   Overcast
8:15 PM 32.0 °F 21.2 °F 30.2 °F 93% 29.81 in 10.0 mi NW 16.1 mph 24.2 mph N/A   Overcast
8:35 PM 32.0 °F 20.8 °F 28.4 °F 87% 29.82 in 10.0 mi NW 17.3 mph 25.3 mph N/A   Overcast
8:55 PM 32.0 °F 23.0 °F 28.4 °F 87% 29.83 in 10.0 mi NW 11.5 mph 28.8 mph N/A   Overcast
9:15 PM 32.0 °F 23.0 °F 28.4 °F 87% 29.82 in 10.0 mi WNW 11.5 mph - N/A   Overcast
9:35 PM 32.0 °F 21.2 °F 28.4 °F 87% 29.84 in 10.0 mi WNW 16.1 mph 21.9 mph N/A   Overcast
9:55 PM 32.0 °F 21.6 °F 28.4 °F 87% 29.84 in 10.0 mi NW 15.0 mph 21.9 mph N/A   Overcast
10:15 PM 32.0 °F 21.6 °F 28.4 °F 87% 29.85 in 10.0 mi WNW 15.0 mph 21.9 mph N/A   Overcast
10:35 PM 32.0 °F 22.1 °F 28.4 °F 87% 29.85 in 10.0 mi NW 13.8 mph 21.9 mph N/A   Overcast
10:55 PM 32.0 °F 21.6 °F 28.4 °F 87% 29.86 in 10.0 mi WNW 15.0 mph 21.9 mph N/A   Overcast
11:15 PM 32.0 °F 22.5 °F 28.4 °F 87% 29.86 in 10.0 mi WNW 12.7 mph 20.7 mph N/A   Overcast
11:35 PM 32.0 °F 22.5 °F 28.4 °F 87% 29.86 in 7.0 mi WNW 12.7 mph 20.7 mph N/A   Overcast
12:15 AM 30.2 °F 20.8 °F 28.4 °F 93% 29.86 in 10.0 mi WNW 11.5 mph 18.4 mph N/A   Overcast
12:35 AM 30.2 °F 20.2 °F 28.4 °F 93% 29.86 in 10.0 mi WNW 12.7 mph 17.3 mph N/A   Overcast
12:55 AM 30.2 °F 20.2 °F 28.4 °F 93% 29.87 in 10.0 mi WNW 12.7 mph 17.3 mph N/A   Overcast